Home > Weather > Kemerovo > Past weeks

Flag for Russia Weather for the Past 2 Weeks in Kemerovo, Russia

Now
10 °F

Snow flurries. Passing clouds.


Feels Like: -3 °F
Forecast: -9 / 7 °F
Wind: 10 mph from South

Location: Kemerovo

Current Time: Feb 12, 2016 at 8:48:50 AM

Latest Report: Feb 12, 2016 at 8:00 AM


Visibility: 6 mi

Pressure: 30.48 "Hg

Humidity: 85%

Dew point: 7 °F

Location of KemerovoLocation

Historic Weather in Kemerovo — Graph

°F

Kemerovo Temperature Yesterday

Maximum temperature yesterday: 7 °F (at 3:30 PM)
Minimum temperature yesterday: 0 °F (at 4:00 AM)
Average temperature yesterday: 4 °F

High & Low Weather Summary for the Past Weeks

 TemperatureHumidityPressure
High32 °F (Feb 6, 5:00 PM)100% (Feb 7, 6:00 PM)30.72 "Hg (Feb 7, 6:00 PM)
Low-13 °F (Jan 30, 8:00 AM)43% (Jan 29, 4:00 PM)29.50 "Hg (Feb 8, 9:30 AM)
Average12 °F79%30.29 "Hg
* Reported Jan 28 7:00 AM — Feb 12 7:30 AM, Kemerovo, Weather by CustomWeather, © 2016

Note: Actual official high and low records may vary slightly from our data, if they occured in-between our weather recording intervals... More about our weather records

Advertising

Kemerovo Weather History for the Previous 24 Hours

 ConditionsComfort  
Time TempWeatherWind HumidityBarometerVisibility
7:30 AM
Fri, Feb 12
10 °FSnow flurries. Passing clouds.10 mph85%30.48 "Hg4 mi
7:00 AM10 °FSnow flurries. Passing clouds.10 mph85%30.48 "Hg5 mi
6:30 AM9 °FSnow flurries. Passing clouds.8 mph85%30.48 "Hg4 mi
6:00 AM9 °FSnow flurries. Passing clouds.8 mph85%30.51 "Hg4 mi
5:00 AM9 °FSnow flurries. Passing clouds.13 mph85%30.51 "Hg2 mi
4:30 AM7 °FSnow flurries. Passing clouds.10 mph85%30.51 "Hg4 mi
4:00 AM7 °FSnow flurries. Passing clouds.10 mph85%30.51 "Hg6 mi
3:30 AM7 °FSnow flurries. Passing clouds.10 mph85%30.51 "Hg3 mi
3:00 AM7 °FSnow flurries. Passing clouds.13 mph85%30.51 "Hg2 mi
2:30 AM7 °FSnow flurries. Passing clouds.10 mph78%30.51 "Hg2 mi
2:00 AM5 °FSnow flurries. Passing clouds.13 mph85%30.54 "Hg2 mi
1:30 AM5 °FSnow flurries. Passing clouds.13 mph85%30.54 "Hg2 mi
1:00 AM5 °FSnow flurries. Passing clouds.13 mph85%30.54 "Hg3 mi
12:30 AM5 °FSnow flurries. Overcast.13 mph85%30.54 "Hg2 mi
12:00 AM5 °FSnow flurries. Overcast.15 mph85%30.54 "Hg2 mi
11:30 PM
Thu, Feb 11
5 °FSnow flurries. Overcast.15 mph78%30.54 "Hg1 mi
11:00 PM5 °FSnow flurries. Overcast.13 mph78%30.54 "Hg6 mi
10:30 PM5 °FClear.13 mph78%30.57 "Hg10 mi
10:00 PM5 °FClear.15 mph72%30.57 "Hg10 mi
9:30 PM3 °FClear.13 mph78%30.57 "Hg10 mi
9:00 PM5 °FClear.10 mph78%30.57 "Hg10 mi
8:30 PM5 °FClear.10 mph78%30.57 "Hg10 mi
8:00 PM5 °FClear.13 mph78%30.60 "Hg10 mi
7:30 PM5 °FClear.13 mph78%30.60 "Hg10 mi
7:00 PM5 °FSunny.13 mph78%30.60 "Hg10 mi
6:30 PM5 °FSunny.13 mph78%30.60 "Hg10 mi
6:00 PM7 °FSunny.13 mph72%30.60 "Hg10 mi
5:30 PM7 °FSunny.10 mph66%30.60 "Hg10 mi
5:00 PM7 °FSunny.10 mph66%30.60 "Hg10 mi
4:30 PM7 °FSunny.13 mph66%30.60 "Hg10 mi
4:00 PM7 °FPassing clouds.13 mph66%30.60 "HgN/A
3:30 PM7 °FPassing clouds.10 mph66%30.60 "HgN/A
3:00 PM5 °FScattered clouds.15 mph72%30.60 "HgN/A
2:30 PM5 °FPartly sunny.13 mph78%30.60 "HgN/A
2:00 PM5 °FScattered clouds.15 mph72%30.60 "HgN/A
1:30 PM5 °FSnow flurries. Partly sunny.13 mph72%30.60 "Hg6 mi
1:00 PM5 °FSnow flurries. More clouds than sun.15 mph72%30.63 "Hg5 mi
12:30 PM3 °FSnow flurries. More clouds than sun.13 mph78%30.63 "HgN/A
12:00 PM3 °FSnow flurries. More clouds than sun.13 mph78%30.63 "Hg4 mi
11:30 AM3 °FSnow flurries. More clouds than sun.13 mph78%30.60 "HgN/A
11:00 AM3 °FSnow flurries. More clouds than sun.10 mph78%30.60 "Hg6 mi
10:30 AM3 °FSnow flurries. More clouds than sun.10 mph78%30.60 "HgN/A
10:00 AM1 °FSnow flurries. Partly sunny.10 mph85%30.60 "Hg6 mi
9:00 AM1 °FSnow flurries. Passing clouds.8 mph85%30.60 "Hg4 mi
8:30 AM1 °FSnow flurries. Passing clouds.8 mph85%30.60 "Hg3 mi
8:00 AM1 °FSnow flurries. Passing clouds.8 mph85%30.60 "Hg3 mi
Weather by CustomWeather, © 2016

See weather overviewHow to use our weather pages